When you browse on this site, cookies collect data to enhance your experience and personalize the content and advertising you see.
Visit our Privacy Policy to learn more. By continuing to use the site, you agree to this use of cookies and data.
  • In Österreich
  • Länderverzeichnis
  • Für 7 Tage
  • Wassertemperatur
  • Satellitenkarten
  • Wetterkarte
  • News
  • Widgets
  • user-avatar
    Anmelden

    Stündliche Wetter Viedma

    Heute, 18 Januar, Freitag

    Zeit Temperatur Niederschläge Wind Luftdruck Luftfeuchtigkeit
    00:00 +16°C° 0 mm 6 m/S 764 mmHg 55%
    01:00 +15°C° 0 mm 6 m/S 763 mmHg 56%
    02:00 +15°C° 0 mm 6 m/S 763 mmHg 56%
    03:00 +15°C° 0 mm 6 m/S 763 mmHg 55%
    04:00 +15°C° 0 mm 6 m/S 763 mmHg 55%
    05:00 +15°C° 0 mm 6 m/S 763 mmHg 54%
    06:00 +17°C° 0 mm 6 m/S 763 mmHg 45%
    07:00 +20°C° 0 mm 7 m/S 763 mmHg 37%
    08:00 +22°C° 0 mm 7 m/S 763 mmHg 28%
    09:00 +26°C° 0 mm 7 m/S 763 mmHg 23%
    10:00 +28°C° 0 mm 7 m/S 762 mmHg 18%
    11:00 +32°C° 0 mm 6 m/S 762 mmHg 12%
    12:00 +33°C° 0 mm 6 m/S 762 mmHg 11%
    13:00 +34°C° 0 mm 6 m/S 761 mmHg 11%
    14:00 +35°C° 0 mm 5 m/S 761 mmHg 10%
    15:00 +35°C° 0 mm 5 m/S 761 mmHg 10%
    16:00 +35°C° 0 mm 4 m/S 760 mmHg 10%
    17:00 +35°C° 0 mm 4 m/S 760 mmHg 11%
    18:00 +33°C° 0 mm 4 m/S 760 mmHg 13%
    19:00 +30°C° 0 mm 4 m/S 760 mmHg 14%
    20:00 +28°C° 0 mm 5 m/S 760 mmHg 16%
    21:00 +27°C° 0 mm 5 m/S 760 mmHg 19%
    22:00 +26°C° 0 mm 6 m/S 760 mmHg 22%
    23:00 +23°C° 0 mm 7 m/S 760 mmHg 25%

    Morgen, 19 Januar, Samstag

    Zeit Temperatur Niederschläge Wind Luftdruck Luftfeuchtigkeit
    00:00 +23°C° 0 mm 7 m/S 760 mmHg 26%
    01:00 +23°C° 0 mm 6 m/S 760 mmHg 27%
    02:00 +23°C° 0 mm 6 m/S 760 mmHg 28%
    03:00 +22°C° 0 mm 6 m/S 760 mmHg 27%
    04:00 +22°C° 0 mm 6 m/S 760 mmHg 26%
    05:00 +22°C° 0 mm 6 m/S 760 mmHg 24%
    06:00 +24°C° 0 mm 7 m/S 760 mmHg 23%
    07:00 +27°C° 0 mm 8 m/S 760 mmHg 22%
    08:00 +29°C° 0 mm 8 m/S 760 mmHg 20%
    09:00 +31°C° 0 mm 8 m/S 760 mmHg 18%
    10:00 +33°C° 0 mm 8 m/S 760 mmHg 15%
    11:00 +34°C° 0 mm 8 m/S 759 mmHg 13%
    12:00 +35°C° 0 mm 8 m/S 759 mmHg 12%
    13:00 +37°C° 0 mm 8 m/S 759 mmHg 11%
    14:00 +38°C° 0 mm 8 m/S 758 mmHg 11%
    15:00 +38°C° 0 mm 8 m/S 757 mmHg 11%
    16:00 +38°C° 0 mm 8 m/S 757 mmHg 11%
    17:00 +37°C° 0 mm 8 m/S 756 mmHg 11%
    18:00 +35°C° 0 mm 8 m/S 756 mmHg 16%
    19:00 +33°C° 0 mm 7 m/S 756 mmHg 21%
    20:00 +30°C° 0 mm 7 m/S 756 mmHg 25%
    21:00 +29°C° 0 mm 7 m/S 756 mmHg 29%
    22:00 +28°C° 0 mm 7 m/S 755 mmHg 33%
    23:00 +27°C° 0 mm 7 m/S 755 mmHg 37%

    übermorgen, 20 Januar, Sonntag

    Zeit Temperatur Niederschläge Wind Luftdruck Luftfeuchtigkeit
    00:00 +28°C° 0 mm 8 m/S 755 mmHg 35%
    01:00 +28°C° 0 mm 9 m/S 755 mmHg 34%
    02:00 +28°C° 0 mm 10 m/S 754 mmHg 32%
    03:00 +27°C° 0 mm 10 m/S 754 mmHg 35%
    04:00 +27°C° 0 mm 9 m/S 754 mmHg 37%
    05:00 +26°C° 0 mm 9 m/S 754 mmHg 39%
    06:00 +27°C° 0 mm 10 m/S 754 mmHg 38%
    07:00 +28°C° 0 mm 10 m/S 754 mmHg 37%
    08:00 +29°C° 0 mm 10 m/S 754 mmHg 36%
    09:00 +32°C° 0 mm 10 m/S 753 mmHg 33%
    10:00 +33°C° 0 mm 10 m/S 753 mmHg 30%
    11:00 +36°C° 0 mm 10 m/S 753 mmHg 27%
    12:00 +38°C° 0 mm 10 m/S 752 mmHg 25%
    13:00 +39°C° 0 mm 10 m/S 751 mmHg 22%
    14:00 +40°C° 0 mm 9 m/S 750 mmHg 20%
    15:00 +40°C° 0 mm 10 m/S 749 mmHg 19%
    16:00 +42°C° 0 mm 10 m/S 748 mmHg 19%
    17:00 +42°C° 0 mm 10 m/S 748 mmHg 19%
    18:00 +39°C° 0.8 mm 9 m/S 747 mmHg 23%
    19:00 +37°C° 0.8 mm 8 m/S 747 mmHg 27%
    20:00 +34°C° 0.8 mm 8 m/S 747 mmHg 32%
    21:00 +34°C° 0 mm 8 m/S 747 mmHg 31%
    22:00 +33°C° 0 mm 9 m/S 747 mmHg 30%
    23:00 +33°C° 0 mm 9 m/S 748 mmHg 29%

    21 Januar, Montag

    Zeit Temperatur Niederschläge Wind Luftdruck Luftfeuchtigkeit
    00:00 +29°C° 0 mm 7 m/S 748 mmHg 33%
    01:00 +27°C° 0 mm 6 m/S 749 mmHg 38%
    02:00 +25°C° 0 mm 4 m/S 750 mmHg 43%
    03:00 +23°C° 0 mm 5 m/S 751 mmHg 42%
    04:00 +22°C° 0 mm 6 m/S 752 mmHg 40%
    05:00 +21°C° 0 mm 7 m/S 753 mmHg 39%
    06:00 +22°C° 0 mm 7 m/S 754 mmHg 35%
    07:00 +22°C° 0 mm 8 m/S 755 mmHg 32%
    08:00 +22°C° 0 mm 8 m/S 756 mmHg 28%
    09:00 +23°C° 0 mm 7 m/S 756 mmHg 27%
    10:00 +23°C° 0 mm 6 m/S 756 mmHg 27%
    11:00 +25°C° 0 mm 5 m/S 756 mmHg 27%
    12:00 +26°C° 0 mm 5 m/S 756 mmHg 26%
    13:00 +26°C° 0 mm 4 m/S 756 mmHg 26%
    14:00 +26°C° 0 mm 3 m/S 755 mmHg 25%
    15:00 +27°C° 0 mm 3 m/S 755 mmHg 25%
    16:00 +27°C° 0 mm 3 m/S 754 mmHg 26%
    17:00 +27°C° 0 mm 3 m/S 753 mmHg 26%
    18:00 +25°C° 0 mm 5 m/S 753 mmHg 34%
    19:00 +22°C° 0 mm 6 m/S 753 mmHg 42%
    20:00 +20°C° 0 mm 7 m/S 752 mmHg 50%
    21:00 +20°C° 0 mm 8 m/S 752 mmHg 51%
    22:00 +19°C° 0 mm 9 m/S 751 mmHg 53%
    23:00 +19°C° 0 mm 10 m/S 751 mmHg 54%

    22 Januar, Dienstag

    Zeit Temperatur Niederschläge Wind Luftdruck Luftfeuchtigkeit
    00:00 +19°C° 0 mm 10 m/S 750 mmHg 52%
    01:00 +21°C° 0 mm 9 m/S 750 mmHg 51%
    02:00 +21°C° 0 mm 9 m/S 749 mmHg 49%
    03:00 +21°C° 0 mm 8 m/S 749 mmHg 50%
    04:00 +21°C° 0 mm 7 m/S 749 mmHg 51%
    05:00 +20°C° 0 mm 5 m/S 749 mmHg 52%
    06:00 +22°C° 0 mm 7 m/S 750 mmHg 44%
    07:00 +23°C° 0 mm 8 m/S 751 mmHg 35%
    08:00 +24°C° 0 mm 10 m/S 751 mmHg 27%
    09:00 +26°C° 0 mm 9 m/S 752 mmHg 26%
    10:00 +26°C° 0 mm 9 m/S 752 mmHg 25%
    11:00 +27°C° 0 mm 8 m/S 753 mmHg 24%
    12:00 +27°C° 0 mm 7 m/S 753 mmHg 23%
    13:00 +27°C° 0 mm 6 m/S 753 mmHg 23%
    14:00 +27°C° 0 mm 5 m/S 754 mmHg 23%
    15:00 +27°C° 0 mm 5 m/S 753 mmHg 23%
    16:00 +27°C° 0 mm 5 m/S 753 mmHg 24%
    17:00 +27°C° 0 mm 5 m/S 753 mmHg 24%
    18:00 +25°C° 0 mm 5 m/S 753 mmHg 29%
    19:00 +22°C° 0 mm 6 m/S 754 mmHg 34%
    20:00 +20°C° 0 mm 7 m/S 754 mmHg 39%
    21:00 +19°C° 0 mm 6 m/S 754 mmHg 40%
    22:00 +19°C° 0 mm 5 m/S 755 mmHg 42%
    23:00 +19°C° 0 mm 4 m/S 756 mmHg 44%

    23 Januar, Mittwoch

    Zeit Temperatur Niederschläge Wind Luftdruck Luftfeuchtigkeit
    00:00 +18°C° 0 mm 4 m/S 756 mmHg 47%
    01:00 +18°C° 0 mm 3 m/S 756 mmHg 51%
    02:00 +18°C° 0 mm 3 m/S 757 mmHg 55%
    03:00 +18°C° 0 mm 3 m/S 757 mmHg 59%
    04:00 +17°C° 0 mm 3 m/S 757 mmHg 63%
    05:00 +17°C° 0 mm 3 m/S 757 mmHg 67%
    06:00 +19°C° 0 mm 3 m/S 757 mmHg 61%
    07:00 +20°C° 0 mm 4 m/S 758 mmHg 54%
    08:00 +22°C° 0 mm 5 m/S 758 mmHg 48%
    09:00 +23°C° 0 mm 6 m/S 757 mmHg 40%
    10:00 +26°C° 0 mm 6 m/S 757 mmHg 33%
    11:00 +28°C° 0 mm 7 m/S 757 mmHg 25%
    12:00 +28°C° 0 mm 7 m/S 756 mmHg 26%
    13:00 +29°C° 0 mm 7 m/S 755 mmHg 26%
    14:00 +31°C° 0 mm 8 m/S 755 mmHg 26%
    15:00 +29°C° 0 mm 8 m/S 754 mmHg 30%
    16:00 +27°C° 0 mm 9 m/S 754 mmHg 35%
    17:00 +26°C° 0 mm 10 m/S 753 mmHg 39%
    18:00 +24°C° 0 mm 9 m/S 753 mmHg 45%
    19:00 +23°C° 0 mm 8 m/S 753 mmHg 50%
    20:00 +21°C° 0 mm 7 m/S 752 mmHg 56%
    21:00 +21°C° 0 mm 7 m/S 752 mmHg 60%
    22:00 +21°C° 0 mm 7 m/S 752 mmHg 64%
    23:00 +21°C° 0 mm 8 m/S 751 mmHg 68%
    Mehr zeigen